Simultaneous Nadir Overpasses (SNOs) Predictions

Prediction of SNOs between METOP-B and TERRA Satellite Orbit:

Table of predicted SNOs for the next 14.0 days since TLE Epoch: 12/5/2015
Index Date (METOP-B) Time (METOP-B) Lat,Lon (METOP-B) SZA (METOP-B ) Date (TERRA) Time (TERRA) Lat,Lon (TERRA) SZA (TERRA ) Distance(km) Time Diff (sec)
1 12/06/2015 15:56:54 81.34, -11.01 106.81 12/06/2015 15:57:24 81.35, -11.20 106.81 3.10 30
2 12/06/2015 16:47:35 -81.34, 156.30 73.19 12/06/2015 16:46:51 -81.34, 156.36 73.20 1.07 44
3 12/09/2015 11:31:14 81.34, 55.05 107.04 12/09/2015 11:31:37 81.34, 55.11 107.06 1.11 23
4 12/09/2015 12:21:54 -81.34,-137.21 72.91 12/09/2015 12:21:04 -81.34,-137.30 72.95 1.71 50
5 12/12/2015 07:05:31 81.34, 121.87 107.30 12/12/2015 07:05:48 81.35, 121.71 107.29 2.71 17
6 12/
